Location: Burzi?i
(45.0869°N, 16.0577°E)
Time: 12:01:41
(UTC+00:00)

Cosmos 1302 Rocket - Pass Details

Date: 29 October 2020
Orbit: 756 x 777 km, 74.0° (Epoch: 28 November)

Event Time Altitude Azimuth Distance (km) Brightness Sun altitude
Rises 16:55:01 0° 206° (SSW) 3,225 7.7 -12.4°
Reaches altitude 10° 16:57:24 10° 209° (SSW) 2,306 7.0 -12.8°
Maximum altitude 17:02:37 69° 293° (WNW) 829 4.4 -13.8°
Drops below altitude 10° 17:07:54 10° 17° (NNE) 2,333 6.3 -14.7°
Sets 17:10:19 0° 20° (NNE) 3,266 7.0 -15.1°
